Location: ????????
(48.4751°N, 37.6926°E)
Time: 13:26:56
(UTC+00:00)

CSL-04 Debris - Pass Details

Date: 20 January 2021
Orbit: 827 x 847 km, 98.9° (Epoch: 26 February)

Event Time Altitude Azimuth Distance (km) Brightness Sun altitude
Rises 15:58:19 0° 150° (SSE) 3,362 7.1 -17.7°
Reaches altitude 10° 16:00:41 10° 147° (SSE) 2,430 6.4 -18.1°
Maximum altitude 16:05:57 59° 69° (ENE) 959 4.1 -19.0°
Drops below altitude 10° 16:11:15 10° 352° (N) 2,443 6.6 -19.8°
Sets 16:13:38 0° 348° (NNW) 3,381 7.4 -20.2°
